Flight Track Log - Related Links

Times and Time Zones

All times are in EDT time to prevent confusion due to time zone crossing. See the SKW6446 flight status page for this flight to view local times or setup timezone preferences in your user account.

Time Position Orientation Groundspeed Altitude Reporting Facility
EDT Latitude Longitude Course Direction KTS MPH feet Rate Location/Type
Fri 08:47:26 PM 33.9486 -118.4622 296° West 140 161 2,200  Level Los Angeles Center
Fri 08:48:28 PM 33.9644 -118.5189 289° West 177 204 3,200 1,024 Climbing Los Angeles Center
Fri 08:49:29 PM 33.9800 -118.5728 289° West 197 227 4,300 1,452 Climbing Los Angeles Center
Fri 08:50:00 PM 34.0156 -118.6949 284° West  Level FlightAware Approximate
Fri 08:50:32 PM 34.0039 -118.6564 289° West 212 244 6,200  Level Los Angeles Center
Fri 08:51:00 PM 34.0379 -118.7953 285° West  Level FlightAware Approximate
Fri 08:51:34 PM 34.0242 -118.7269 289° West 207 238 7,900  Level Los Angeles Center
Fri 08:52:00 PM 34.0670 -118.8926 296° West  Level FlightAware Approximate
Fri 08:52:36 PM 34.0422 -118.7911 289° West 206 237 9,000  Level Los Angeles Center
Fri 08:53:38 PM 34.0653 -118.8667 290° West 239 275 9,000  Level Los Angeles Center
Fri 08:54:40 PM 34.0903 -118.9483 290° West 259 298 9,000 97 Level Los Angeles Center
Fri 08:55:42 PM 34.1131 -119.0344 288° West 268 308 9,200 484 Climbing Los Angeles Center
Fri 08:56:44 PM 34.1464 -119.1078 299° West 251 289 10,000 768 Climbing Los Angeles Center
Fri 08:57:47 PM 34.1928 -119.1906 304° West 249 287 10,800 288 Climbing Los Angeles Center
Fri 08:58:49 PM 34.2358 -119.2644 305° West 270 311 10,600 -290 Descending Los Angeles Center
Fri 08:59:51 PM 34.2750 -119.3342 304° West 245 282 10,200 -484 Descending Los Angeles Center
Fri 09:00:53 PM 34.3058 -119.3919 303° West 192 221 9,600 -677 Descending Los Angeles Center
Fri 09:01:55 PM 34.3306 -119.4447 300° West 180 207 8,800 -326 Descending Los Angeles Center
Fri 09:02:25 PM 34.3517 -119.4894 300° West 221 254 9,100 290 Climbing Los Angeles Center
Fri 09:02:57 PM 34.3722 -119.5261 304° West 233 268 9,100 -83 Level Los Angeles Center
Fri 09:03:37 PM 34.4006 -119.5725 307° West 255 293 9,000 -97 Descending Los Angeles Center
Fri 09:03:59 PM 34.4164 -119.5944 311° West 254 292 9,000  Level Los Angeles Center
Fri 09:04:32 PM 34.4386 -119.6358 303° West 262 302 9,000  Level Los Angeles Center
Fri 09:05:01 PM 34.4556 -119.6719 300° West 265 305 9,000 -800 Level Los Angeles Center
Fri 09:05:32 PM 34.4803 -119.7161 304° West 270 311 8,200 -968 Descending Los Angeles Center
Fri 09:06:03 PM 34.4961 -119.7483 301° West 269 310 8,000 -197 Descending Los Angeles Center
Fri 09:06:33 PM 34.5189 -119.7925 302° West 251 289 8,000  Level Los Angeles Center
Fri 09:07:05 PM 34.5311 -119.8181 300° West 250 288 8,000  Level Los Angeles Center
Fri 09:07:34 PM 34.5506 -119.8578 301° West 224 258 8,000  Level Los Angeles Center
Fri 09:08:07 PM 34.5558 -119.8694 299° West 230 265 8,000 -308 Level Los Angeles Center
Fri 09:08:52 PM 34.5947 -119.9400 304° West 219 252 7,600 -484 Descending Los Angeles Center
Fri 09:09:09 PM 34.6031 -119.9533 307° West 224 258 7,500 -537 Descending Los Angeles Center
Fri 09:09:59 PM 34.6356 -120.0081 306° West 230 265 7,000 -585 Descending Los Angeles Center
Fri 09:11:12 PM 34.6806 -120.0850 305° West 231 266 6,300 -838 Descending Los Angeles Center
Fri 09:12:15 PM 34.7217 -120.1517 307° West 234 269 5,100 -1,056 Descending Los Angeles Center
Fri 09:13:17 PM 34.7578 -120.2139 305° West 229 264 4,100 -1,069 Descending Los Angeles Center
Fri 09:13:56 PM 34.7797 -120.2519 305° West 210 242 3,300 -968 Descending Los Angeles Center
Fri 09:14:19 PM 34.7886 -120.2694 302° West 208 239 3,100 -282 Descending Los Angeles Center
Fri 09:15:21 PM 34.8053 -120.3233 291° West 179 206 2,900 -466 Descending Los Angeles Center
Fri 09:16:15 PM 34.8239 -120.3661 298° West 159 183 2,200 -730 Descending Los Angeles Center
Fri 09:17:16 PM 34.8531 -120.4011 315° West 137 158 1,500 -689 Descending Los Angeles Center

Login

Don't have an account? Register now (free) for customized features, flight alerts, and more!